EW0784 Weather Reports


Display with metric or nautical units.
time (UTC)temp
F
wind
direction
speed
MPH
gust
MPH
rain 1hr
in
rain 24hr
in
rain mn
in
humidity
%
barometer
mb
20260831213004 89 328 0.0 0.0 0.00 0.00 0.00 46 1010.5
20260831211503 90 100 0.0 0.0 0.00 0.00 0.00 48 1010.4
20260831210002 90 236 0.0 0.0 0.00 0.00 0.00 47 1010.4
20260831204601 89 336 0.0 0.0 0.00 0.00 0.00 49 1010.4
20260831203106 88 118 0.0 0.0 0.00 0.00 0.00 51 1010.4
20260831201557 89 86 0.0 1.0 0.00 0.00 0.00 54 1010.5
20260831200055 88 244 0.0 0.0 0.00 0.00 0.00 55 1010.4
20260831194653 87 309 0.0 3.0 0.00 0.00 0.00 57 1010.4
20260831193050 87 240 0.0 0.0 0.00 0.00 0.00 60 1010.4
20260831191548 86 101 0.0 0.0 0.00 0.00 0.00 60 1010.4
20260831184546 85 245 0.0 0.0 0.00 0.00 0.00 63 1010.4
20260831183043 84 19 0.0 3.0 0.00 0.00 0.00 64 1010.4
20260831181545 84 296 0.0 0.0 0.00 0.00 0.00 69 1010.4
20260831180042 84 347 0.0 4.0 0.00 0.00 0.00 68 1010.7
20260831174538 83 220 0.0 0.0 0.00 0.00 0.00 73 1010.7
20260831173037 82 25 0.0 0.0 0.00 0.00 0.00 76 1010.8
20260831171539 81 43 0.0 2.0 0.00 0.00 0.00 79 1010.7
20260831170036 81 293 0.0 0.0 0.00 0.00 0.00 78 1010.8
20260831164536 81 285 0.0 4.0 0.00 0.00 0.00 79 1010.7
20260831163036 81 48 0.0 0.0 0.00 0.00 0.00 80 1010.6
20260831161527 81 247 0.0 0.0 0.00 0.00 0.00 80 1010.6
20260831160025 80 293 0.0 0.0 0.00 0.00 0.00 81 1010.5
20260831154525 80 327 0.0 0.0 0.00 0.00 0.00 81 1010.4
20260831153025 80 293 0.0 0.0 0.00 0.00 0.00 83 1010.1
20260831151519 79 273 0.0 0.0 0.00 0.00 0.00 84 1009.8
20260831150017 79 316 0.0 3.0 0.00 0.00 0.00 83 1009.6
20260831144514 78 280 0.0 6.0 0.00 0.00 0.00 85 1009.4
20260831143024 78 262 0.0 3.0 0.00 0.00 0.00 85 1009.3
20260831141534 78 240 0.0 0.0 0.00 0.00 0.00 85 1009.1
20260831140009 77 264 0.0 0.0 0.00 0.00 0.00 87 1008.8
20260831134504 76 241 0.0 0.0 0.00 0.00 0.00 88 1008.8
20260831133104 75 283 0.0 0.0 0.00 0.00 0.00 89 1008.7
20260831131604 74 279 0.0 0.0 0.00 0.00 0.00 92 1008.6
20260831130058 73 243 0.0 0.0 0.00 0.00 0.00 92 1008.5
20260831124608 72 117 0.0 0.0 0.00 0.00 0.00 94 1008.4
20260831123055 71 117 0.0 0.0 0.00 0.00 0.00 96 1008.4
20260831121554 70 117 0.0 0.0 0.00 0.00 0.00 96 1008.2
20260831120053 69 117 0.0 0.0 0.00 0.00 0.00 96 1008.0
20260831114552 69 117 0.0 0.0 0.00 0.00 0.00 96 1007.8
20260831113054 69 117 0.0 0.0 0.00 0.00 0.00 96 1007.7
20260831111549 69 117 0.0 0.0 0.00 0.00 0.00 95 1007.5
20260831110048 70 117 0.0 0.0 0.00 0.00 0.00 95 1007.3
20260831104547 70 86 0.0 0.0 0.00 0.00 0.00 95 1007.3
20260831103046 70 141 0.0 0.0 0.00 0.00 0.00 95 1007.4
20260831101556 70 128 0.0 0.0 0.00 0.00 0.00 95 1007.1
20260831100057 70 108 0.0 0.0 0.00 0.00 0.00 94 1007.1
20260831094544 70 99 0.0 0.0 0.00 0.00 0.00 94 1007.2
20260831093042 71 126 0.0 0.0 0.00 0.00 0.00 93 1007.2
20260831091541 71 131 0.0 0.0 0.00 0.00 0.00 93 1007.3
20260831090100 71 198 0.0 0.0 0.00 0.00 0.00 93 1007.2
20260831084541 71 129 0.0 0.0 0.00 0.00 0.00 92 1007.3
20260831083038 71 141 0.0 0.0 0.00 0.00 0.00 92 1007.0
20260831081537 71 127 0.0 0.0 0.00 0.00 0.00 91 1006.9
20260831080035 71 127 0.0 0.0 0.00 0.00 0.00 91 1007.0
20260831074534 71 141 0.0 1.0 0.00 0.00 0.00 90 1007.1
20260831073033 71 137 0.0 0.0 0.00 0.00 0.00 90 1007.2
20260831071531 71 135 0.0 4.0 0.00 0.00 0.00 89 1007.2
20260831070036 72 105 0.0 0.0 0.00 0.00 0.00 89 1007.5
20260831064526 72 138 0.0 0.0 0.00 0.00 0.00 88 1007.7
20260831063024 72 117 0.0 0.0 0.00 0.00 0.00 88 1007.8
20260831061522 73 151 0.0 0.0 0.00 0.00 0.00 87 1008.0
20260831060020 73 82 0.0 1.0 0.00 0.00 0.00 87 1008.0
20260831054518 73 108 0.0 2.0 0.00 0.00 0.00 86 1008.1
20260831053016 73 101 0.0 5.0 0.00 0.00 0.00 86 1008.3
20260831051523 74 123 0.0 0.0 0.00 0.00 0.00 85 1008.5
20260831050012 74 64 0.0 4.0 0.00 0.00 0.00 84 1008.8
20260831044511 74 128 0.0 1.0 0.00 0.00 0.00 83 1008.8
20260831043009 75 140 0.0 4.0 0.00 0.00 0.00 83 1008.9
20260831041517 75 152 0.0 10.0 0.00 0.00 0.00 82 1008.9
20260831040009 75 85 0.0 0.0 0.00 0.00 0.00 82 1008.8
20260831034508 75 271 0.0 0.0 0.00 0.00 0.00 81 1008.8
20260831033007 76 257 0.0 2.0 0.00 0.00 0.00 80 1008.8
20260831031507 76 217 0.0 2.0 0.00 0.00 0.00 79 1008.7
20260831030006 77 221 0.0 8.0 0.00 0.00 0.00 78 1008.5
20260831024507 77 274 0.0 4.0 0.00 0.00 0.00 77 1008.6
20260831023005 78 171 0.0 8.0 0.00 0.00 0.00 74 1008.7
20260831021504 79 209 0.0 7.0 0.00 0.00 0.00 72 1008.6
20260831020004 79 167 0.0 9.0 0.00 0.00 0.00 73 1008.6
20260831014504 79 216 0.0 0.0 0.00 0.00 0.00 77 1008.6
20260831013003 79 84 0.0 0.0 0.00 0.00 0.00 79 1008.2
20260831011502 79 109 0.0 0.0 0.00 0.00 0.00 80 1008.1
20260831010004 80 93 0.0 2.0 0.00 0.00 0.00 79 1008.1
20260831004502 80 95 0.0 9.0 0.00 0.00 0.00 78 1008.0
20260831003102 81 162 0.0 5.0 0.00 0.00 0.00 77 1008.0
20260831003002 81 101 0.0 5.0 0.00 0.00 0.00 77 1008.0
20260831001600 82 84 0.0 8.0 0.00 0.00 0.00 75 1007.9
20260831000100 82 82 2.0 13.0 0.00 0.00 0.00 73 1007.9
20260830234608 83 108 0.0 7.0 0.00 0.00 0.00 72 1008.1
20260830233058 83 127 0.0 5.0 0.00 0.00 0.00 72 1007.9
20260830231558 84 108 0.0 6.0 0.00 0.00 0.00 71 1008.1
20260830230057 84 153 0.0 10.0 0.00 0.00 0.00 70 1008.0
20260830224557 84 205 0.0 8.0 0.00 0.00 0.00 70 1008.0
20260830223056 84 105 2.0 12.0 0.00 0.00 0.00 70 1007.8
20260830221553 84 142 1.0 10.0 0.00 0.00 0.00 69 1007.9
20260830220052 84 84 0.0 11.0 0.00 0.00 0.00 70 1008.1
20260830214550 84 95 0.0 13.0 0.00 0.00 0.00 70 1008.1